Location: *
(49.9853°N, 3.5569°E)
Time: 11:20:24
(UTC+00:00)

Cosmos 405 Rocket - Pass Details

Date: 15 December 2019
Orbit: 490 x 555 km, 81.3° (Epoch: 17 January)

Event Time Altitude Azimuth Distance (km) Brightness Sun altitude
Rises 06:53:27 0° 173° (S) 2,620 6.8 -6.8°
Reaches altitude 10° 06:55:40 10° 166° (SSE) 1,728 6.0 -6.5°
Maximum altitude 06:59:14 41° 96° (E) 745 4.2 -6.0°
Drops below altitude 10° 07:02:46 10° 25° (NNE) 1,713 5.3 -5.5°
Sets 07:04:57 0° 18° (NNE) 2,595 6.1 -5.2°
